Regional Weather Roundup
Issued by NWS

Home | Current Version | Previous Version | Text Only | Print | Product List | Glossary Off
Versions: 1 2 3 4 5 6 7 8 9 10 11 12 13 14 15 16 17 18 19 20 21 22 23 24 25 26 27 28 29 30 31 32 33 34 35 36 37 38 39 40 41 42 43 44 45 46 47 48 49 50

416
ASUS45 KBOU 191107
RWRCO

WEATHER ROUNDUP FOR COLORADO
NATIONAL WEATHER SERVICE DENVER/BOULDER CO
400 AM MST SUN FEB 19 2017

NOTE: "FAIR" INDICATES FEW OR NO CLOUDS BELOW 12000 FEET WITH NO
SIGNIFICANT WEATHER AND/OR OBSTRUCTIONS TO VISIBILITY.

COZ001>005-013-030-031-191200-
...NORTHWEST COLORADO...

CITY           SKY/WX    TMP DP  RH WIND       PRES   REMARKS
CRAIG          CLOUDY    27  24  89 CALM      29.75S
HAYDEN         CLOUDY    30  25  80 E10       29.76R WCI  21
MEEKER         FAIR      30  27  88 N7        29.75S WCI  23
MOUNT WERNER   NOT AVBL
STEAMBOAT SPGS NOT AVBL
WALDEN         NOT AVBL
$$

COZ006>008-011-191200-
...WEST CENTRAL VALLEYS...

CITY           SKY/WX    TMP DP  RH WIND       PRES   REMARKS
GRAND JUNCTION MOCLDY    39  37  92 E10       29.73F
MONTROSE       FAIR      30  28  92 E3        29.77S
EAGLE          FAIR      29  27  92 CALM      29.80S
RIFLE          FAIR      30  29  96 SE3       29.76S
DELTA          FAIR      34  32  93 CALM      29.76S
NUCLA          FAIR      36  32  87 SE7       29.76F
$$

COZ017>023-064>068-191200-
...SOUTHWEST COLORADO...

CITY           SKY/WX    TMP DP  RH WIND       PRES   REMARKS
DURANGO        CLOUDY    37  28  70 CALM      29.78F
CORTEZ         CLOUDY    45  28  51 CALM      29.74S
PAGOSA SPRINGS CLOUDY    35  29  76 CALM      29.82F
TELLURIDE      CLOUDY    37  20  49 CALM      29.82S
WOLF CREEK PAS FAIR      21  21 100 S18G26    29.93F WCI   6
$$

COZ009-010-012-014-032>034-037-058>063-191200-
...CENTRAL COLORADO...

CITY           SKY/WX    TMP DP  RH WIND       PRES   REMARKS
ASPEN          FAIR      28  25  88 S5        29.77S WCI  23
BUENA VISTA    FAIR      35  28  75 SW5       29.80R WCI  30
COPPER MTN     FAIR      30  16  55 S17       29.87S WCI  18
BERTHOUD PASS  FAIR      21  12  68 W20G29    29.85F WCI   6
COTTONWOOD PAS FAIR      36  18  48 W6        29.84S
GUNNISON       FAIR      21  19  92 VRB3      29.82S
KREMMLING      FAIR      28  27  93 CALM      29.81S
LEADVILLE      FAIR      28  17  63 CALM      29.81F
MONARCH PASS   FAIR      25  19  80 S18G28    30.01R WCI  11
SALIDA         FAIR      44  26  50 SW13G25   29.86F
SUNLIGHT       NOT AVBL
WILKERSON PASS MOCLDY    28  21  74 SW16G29   29.86S WCI  17
$$

COZ069>075-191200-
...SAN LUIS VALLEY/SANGRE DE CRISTO MOUNTAINS...

CITY           SKY/WX    TMP DP  RH WIND       PRES   REMARKS
ALAMOSA        FAIR      32  26  78 SE9       29.83S WCI  24
LA VETA PASS   FAIR      30  23  74 NE22G36   29.84F WCI  17
SAGUACHE       FAIR      28  27  93 W3        29.85S
$$

COZ035-036-038>040-191200-
...NORTHERN COLORADO FRONT RANGE...

CITY           SKY/WX    TMP DP  RH WIND       PRES   REMARKS
DENVER INTL AP FAIR      42  23  46 S15       29.65S
DMNS CITY PARK   N/A     41  23  48 SE9       29.66R
AURORA         PTCLDY    41  22  47 SW8       29.67R
FRONT RANGE AP FAIR      43  25  49 S13G20    29.66S
ERIE MUNI ARPT FAIR      32  25  74 W3        29.66R
BOULDER MUN AP FAIR      39  27  60 W5        29.65S
CENTENNIAL     FAIR      46  24  42 S13       29.67S
BROOMFIELD     FAIR      43  23  45 NW7       29.66S
FORT COLLINS   FAIR      40  25  55 CALM      29.66R
LONGMONT       FAIR      37  25  62 W3        29.67S
$$

COZ041-046-047-076>085-087-088-191200-
...PIKES PEAK/PALMER DIVIDE AND SOUTHERN FOOTHILLS...

CITY           SKY/WX    TMP DP  RH WIND       PRES   REMARKS
COLO. SPRINGS  FAIR      35  21  56 NE3       29.73F
A. F. ACADEMY  FAIR      26  19  73 N9        29.72F WCI  17
SCHRIEVER AFB  FAIR      35  22  60 E7        29.74S WCI  29
ELLICOTT       FAIR     N/A N/A N/A S12       29.72S
FALCON         NOT AVBL
FORT CARSON    FAIR      35  21  55 N5        29.72R WCI  31
LIMON          FAIR      42  28  57 S9        29.72R
MONUMENT HILL  FAIR      32  21  64 S10       29.75S WCI  24
TRINIDAD       FAIR      50  26  39 W12G21    29.74S
$$

COZ042>045-048>051-090-091-191200-
...NORTHEAST COLORADO...

CITY           SKY/WX    TMP DP  RH WIND       PRES   REMARKS
GREELEY ARPT   FAIR      35  22  58 CALM      29.67R
AKRON          FAIR      50  27  40 S16       29.64S
BURLINGTON     FAIR      47  34  60 S22       29.68F
WRAY           NOT AVBL
STERLING       FAIR      34  27  75 W3        29.62S
HOLYOKE        FAIR      45  32  61 S6        29.66R
FORT MORGAN    FAIR      38  23  55 W8        29.65S
$$

COZ086-089-092>099-191200-
...SOUTHEAST COLORADO...

CITY           SKY/WX    TMP DP  RH WIND       PRES   REMARKS
PUEBLO         FAIR      29  21  72 N3        29.68S
LA JUNTA       FAIR      48  30  49 SE3       29.70F
LAMAR          FAIR      50  34  54 S15       29.72S
SPRINGFIELD      N/A     47  35  63 SW10      29.75R
$$




USA.gov is the U.S. government's official web portal to all federal, state and local government web resources and services.